TimeEST,TemperatureF,Dew PointF,Humidity,Sea Level PressureIn,VisibilityMPH,Wind Direction,Wind SpeedMPH,Gust SpeedMPH,PrecipitationIn,Events,Conditions,WindDirDegrees,DateUTC
12:53 AM,16.0,1.9,54,29.74,9.0,WNW,18.4,33.4,N/A,,Scattered Clouds,290,2013-02-18 05:53:00
1:53 AM,16.0,1.9,54,29.76,10.0,WNW,19.6,33.4,N/A,,Scattered Clouds,300,2013-02-18 06:53:00
2:53 AM,16.0,1.0,52,29.78,9.0,WNW,20.7,29.9,N/A,,Partly Cloudy,300,2013-02-18 07:53:00
3:53 AM,16.0,1.0,52,29.80,10.0,WNW,23.0,32.2,N/A,,Clear,300,2013-02-18 08:53:00
4:53 AM,16.0,1.0,52,29.85,10.0,NW,18.4,32.2,N/A,,Clear,310,2013-02-18 09:53:00
5:53 AM,16.0,1.0,52,29.88,10.0,NW,18.4,31.1,N/A,,Clear,310,2013-02-18 10:53:00
6:53 AM,16.0,1.0,52,29.92,10.0,WNW,21.9,34.5,N/A,,Clear,300,2013-02-18 11:53:00
7:53 AM,17.1,-0.0,47,29.97,10.0,WNW,18.4,29.9,N/A,,Clear,300,2013-02-18 12:53:00
8:53 AM,19.0,1.9,47,30.00,10.0,NW,18.4,27.6,N/A,,Clear,310,2013-02-18 13:53:00
9:53 AM,21.0,1.9,44,30.00,10.0,WNW,17.3,25.3,N/A,,Clear,300,2013-02-18 14:53:00
10:53 AM,24.1,1.9,38,30.02,10.0,WNW,18.4,26.5,N/A,,Clear,290,2013-02-18 15:53:00
11:53 AM,27.0,1.9,34,30.04,10.0,West,17.3,26.5,N/A,,Clear,280,2013-02-18 16:53:00
12:53 PM,28.0,1.0,31,30.04,10.0,WNW,15.0,26.5,N/A,,Clear,290,2013-02-18 17:53:00
1:53 PM,28.9,-0.9,28,30.04,10.0,WNW,12.7,25.3,N/A,,Clear,290,2013-02-18 18:53:00
2:53 PM,30.0,1.0,29,30.06,10.0,WNW,15.0,25.3,N/A,,Clear,290,2013-02-18 19:53:00
3:53 PM,30.0,-0.0,28,30.06,10.0,West,13.8,23.0,N/A,,Clear,280,2013-02-18 20:53:00
4:53 PM,30.0,1.0,29,30.09,10.0,West,12.7,19.6,N/A,,Clear,280,2013-02-18 21:53:00
5:53 PM,28.9,1.0,30,30.12,10.0,West,9.2,-,N/A,,Clear,270,2013-02-18 22:53:00
6:53 PM,28.9,1.0,30,30.14,10.0,West,9.2,-,N/A,,Clear,270,2013-02-18 23:53:00
7:53 PM,28.0,1.0,31,30.16,10.0,West,9.2,-,N/A,,Clear,270,2013-02-19 00:53:00
8:53 PM,28.0,1.9,33,30.17,10.0,West,6.9,-,N/A,,Clear,280,2013-02-19 01:53:00
9:53 PM,27.0,3.0,36,30.17,10.0,West,4.6,-,N/A,,Clear,270,2013-02-19 02:53:00
10:53 PM,27.0,5.0,39,30.19,10.0,West,6.9,-,N/A,,Clear,280,2013-02-19 03:53:00
11:53 PM,27.0,3.9,37,30.20,10.0,West,3.5,-,N/A,,Clear,280,2013-02-19 04:53:00